Regional Weather Roundup
Issued by NWS

Home | Current Version | Previous Version | Graphics & Text | Print | Product List | Glossary On
Versions: 1 2 3 4 5 6 7 8 9 10 11 12 13 14 15 16 17 18 19 20 21 22 23 24 25 26 27 28 29 30 31 32 33 34 35 36 37 38 39 40 41 42 43 44 45 46 47 48 49 50
000
ASUS43 KTOP 271108
RWRKS

WEATHER ROUNDUP FOR KANSAS
NATIONAL WEATHER SERVICE GOODLAND KS
600 AM CDT TUE SEP 27 2016

NOTE:  "FAIR" INDICATES FEW OR NO CLOUDS BELOW 12,000 FEET WITH NO
SIGNIFICANT WEATHER AND/OR OBSTRUCTIONS TO VISIBILITY.

KSZ001>006-013>018-027>032-041>047-271200-
NORTHWEST KANSAS

CITY           SKY/WX    TMP DP  RH WIND       PRES   REMARKS
GOODLAND       CLEAR     49  39  68 W3        30.17F
HAYS           CLEAR     45  34  65 W6        30.10S
HILL CITY      CLEAR     47  43  86 W6        30.12S
RUSSELL        CLEAR     48  43  82 SW7       30.08S
$$

KSZ061>065-074>080-084>089-271200-
SOUTHWEST KANSAS

CITY           SKY/WX    TMP DP  RH WIND       PRES   REMARKS
DODGE CITY     CLEAR     52  38  58 W9        30.14F
ELKHART          N/A     56  34  43 W10         N/A
GARDEN CITY    CLEAR     46  35  65 W6        30.14F
GREAT BEND     CLEAR     48  37  66 SW7       30.10F
LIBERAL        CLEAR     54  36  50 W10       30.17S
PRATT          CLEAR     46  40  77 SW5       30.13F
$$

KSZ066>073-081>083-090>101-271200-
SOUTHEAST KANSAS

CITY           SKY/WX    TMP DP  RH WIND       PRES   REMARKS
CHANUTE        CLEAR     51  46  83 SW7       30.10F
COFFEYVILLE    CLEAR     47  46  97 CALM      30.12F
HUTCHINSON     CLEAR     53  45  74 S3        30.11F
MEDICINE LODGE   N/A     50  47  89 CALM      30.14S
NEWTON         CLEAR    N/A N/A N/A SW8       30.11F
PARSONS        CLEAR     45  44  97 CALM      30.13S
WICHITA INTL   CLEAR     53  46  77 S5        30.12S
WICHITA JABRA  CLEAR     57  45  64 SW10      30.11F
WICHITA MCCONL CLEAR     56  46  69 W7        30.12S
WINFIELD       CLEAR     50  47  89 SW3       30.14S
$$

KSZ007>012-019>026-033>040-048>060-102>105-271200-
NORTHEAST KANSAS

CITY           SKY/WX    TMP DP  RH WIND       PRES   REMARKS
CONCORDIA      CLEAR     54  45  71 SW9       30.06F
EMPORIA        CLEAR     52  46  80 SW3       30.09S
LAWRENCE       CLEAR     47  47 100 CALM      30.07F
MANHATTAN      CLEAR     48  46  93 CALM      30.07F
MARYSVILLE     CLEAR     50  45  81 CALM      30.05F
OLATHE IND     CLEAR     51  47  86 SW7       30.08F
OLATHE EXE     CLEAR     52  46  80 SW5       30.08S
SALINA         CLEAR     51  44  77 CALM      30.08F
TOPEKA BILLARD CLEAR     50  47  89 S5        30.07F
TOPEKA FORBES  CLEAR     51  47  86 S3        30.07S
$$




USA.gov is the U.S. government's official web portal to all federal, state and local government web resources and services.